Home > Time Zones > World Clock > Weather > Peru > Lima > Past weeks

Flag for Peru Weather past 2 weeks in Lima, Lima, Peru

Now
66 °F

Broken clouds.


Feels Like: 66 °F
Forecast: 61 / 71 °F
Wind: 10 mph from Southwest

Location: Lima-Callao / Aerop. Internacional Jorgechavez

Current Time: Oct 20, 2014 at 7:05:05 PM

Latest Report: Oct 20, 2014 at 6:00 PM


Visibility: N/A

Pressure: 29.92 "Hg

Humidity: 78%

Dew point: 59 °F

Location of LimaLocation

Historic Weather in Lima — Graph

°F

Lima temperature yesterday

Maximum temperature yesterday: 70 °F (at 3:00 PM)
Minimum temperature yesterday: 61 °F (at 1:00 AM)
Average temperature yesterday: 64 °F

Past Weeks' High & Low Weather Summary

 TemperatureHumidityPressure
High72 °F (Oct 17, 11:00 AM)100% (Oct 14, 5:00 AM)30.07 "Hg (Oct 14, 5:00 AM)
Low59 °F (Oct 6, 1:00 AM)64% (Oct 19, 3:00 PM)29.89 "Hg (Oct 5, 6:00 PM)
Average64 °F84%29.96 "Hg
* Reported Oct 5 6:00 PM — Oct 20 6:00 PM, Lima, Weather by CustomWeather, © 2014

Note: Actual official high and low records may vary slightly from our data, if they occured in-between our weather recording intervals... More about our weather records

Advertising

Lima weather history for previous 24 hours

 ConditionsComfort  
Time TempWeatherWind HumidityBarometerVisibility
6:00 PM
Oct 20
66 °FBroken clouds.10 mph78%29.92 "HgN/A
5:00 PM68 °FScattered clouds.8 mph73%29.89 "HgN/A
4:00 PM70 °FScattered clouds.9 mph69%29.89 "HgN/A
3:00 PM70 °FPassing clouds.7 mph69%29.89 "HgN/A
2:00 PM72 °FPartly sunny.8 mph65%29.92 "HgN/A
1:00 PM72 °FPassing clouds.9 mph65%29.95 "HgN/A
12:00 PM72 °FPassing clouds.9 mph65%29.98 "HgN/A
11:00 AM70 °FPassing clouds.9 mph64%29.98 "HgN/A
10:00 AM70 °FPartly sunny.8 mph69%30.01 "HgN/A
9:00 AM68 °FPartly sunny.8 mph69%30.01 "HgN/A
8:00 AM64 °FBroken clouds.8 mph78%29.98 "HgN/A
7:00 AM64 °FOvercast.8 mph78%29.98 "HgN/A
6:00 AM63 °FOvercast.8 mph83%29.95 "HgN/A
5:00 AM63 °FOvercast.9 mph83%29.95 "HgN/A
4:00 AM63 °FOvercast.9 mph88%29.92 "HgN/A
3:00 AM63 °FOvercast.9 mph88%29.92 "HgN/A
2:00 AM61 °FPassing clouds.8 mph94%29.95 "HgN/A
1:00 AM61 °FClear.8 mph88%29.95 "Hg10 mi
12:00 AM63 °FClear.9 mph83%29.98 "Hg10 mi
10:00 PM
Oct 19
63 °FClear.7 mph88%29.98 "Hg10 mi
9:00 PM63 °FClear.9 mph88%29.98 "Hg10 mi
8:00 PM63 °FClear.8 mph88%29.98 "Hg10 mi
7:00 PM64 °FPassing clouds.12 mph83%29.98 "HgN/A
Weather by CustomWeather, © 2014

See weather overviewHow to use our weather pages